Robinson, IL

10:51 AM CDT on May 24, 2017 (GMT -0500)
Robinson Municipal

Weather History for KRSV - August, 2014

Change the Weather History Date:

Monday, August 25, 2014

  Actual Average (KLWV) Record (KLWV)
Temperature  
Mean Temperature 80 °F -  
Max Temperature 92 °F 84 °F 95 °F (1998)
Min Temperature 67 °F 62 °F 52 °F (2015)
Cooling Degree Days 14    
Growing Degree Days 30 (Base 50)    
Moisture  
Dew Point 74 °F    
Average Humidity 83    
Maximum Humidity 99    
Minimum Humidity 59    
Precipitation  
Precipitation 0.00 in - - ()
Sea Level Pressure  
Sea Level Pressure 30.04 in    
Wind  
Wind Speed 1 mph (SSE)    
Max Wind Speed 14 mph    
Max Gust Speed 20 mph    
Visibility 6 miles    
Events Fog    
Averages and records for this station are not official NWS values.
T = Trace of Precipitation, MM = Missing Value Source: NWS Daily Summary

Daily Weather History Graph

Daily Weather History Graph

Search for Another Location

Airport or City:

Trip Planner

Search our weather history database for the weather conditions in past years. The results will help you decide how hot, cold, wet, or windy it might be!

Date:

Astronomy

Aug. 25, 2014 Rise Set
Actual Time 6:13 AM CDT 7:31 PM CDT
Civil Twilight 5:45 AM CDT 7:59 PM CDT
Nautical Twilight 5:11 AM CDT 8:32 PM CDT
Astronomical Twilight 4:37 AM CDT 9:07 PM CDT
Moon 6:17 AM CDT (8/25) 7:22 PM CDT (8/25)
Length of Visible Light 14h 13m
Length of Day
13h 18m
New Moon, 0% of the Moon is Illuminated
Aug 25
New Moon
Sep 2
First Quarter
Sep 8
Full
Sep 15
Last Quarter
Sep 24
New

Hourly Weather History & Observations

Time (CDT) Temp. Heat Index Dew Point Humidity Pressure Visibility Wind Dir Wind Speed Gust Speed Precip Events Conditions
12:15 AM 70.9 °F - 70.3 °F 98% 30.02 in 0.2 mi Calm Calm - N/A Fog Fog
12:35 AM 70.7 °F - 70.2 °F 98% 30.03 in 0.2 mi Calm Calm - N/A Fog Fog
12:55 AM 70.5 °F - 70.0 °F 98% 30.03 in 0.2 mi Calm Calm - N/A Fog Fog
1:15 AM 70.0 °F - 69.4 °F 98% 30.03 in 0.2 mi Calm Calm - N/A Fog Fog
1:35 AM 70.5 °F - 70.0 °F 98% 30.03 in 0.2 mi Calm Calm - N/A Fog Fog
1:55 AM 69.4 °F - 68.9 °F 98% 30.02 in 0.2 mi Calm Calm - N/A Fog Fog
2:15 AM 69.8 °F - 69.1 °F 98% 30.02 in 0.2 mi Calm Calm - N/A Fog Fog
2:35 AM 69.8 °F - 69.3 °F 98% 30.02 in 0.2 mi Calm Calm - N/A Fog Fog
2:55 AM 69.4 °F - 68.9 °F 98% 30.02 in 0.2 mi Calm Calm - N/A Fog Fog
3:15 AM 69.4 °F - 68.9 °F 98% 30.02 in 0.2 mi Calm Calm - N/A Fog Fog
3:35 AM 69.8 °F - 69.1 °F 98% 30.02 in 0.5 mi Calm Calm - N/A Fog Fog
4:15 AM 68.7 °F - 68.4 °F 99% 30.02 in 0.2 mi Calm Calm - N/A Fog Fog
4:35 AM 68.2 °F - 67.8 °F 99% 30.02 in 0.5 mi Calm Calm - N/A Fog Fog
4:55 AM 68.2 °F - 67.8 °F 99% 30.02 in 0.2 mi Calm Calm - N/A Fog Fog
5:15 AM 68.4 °F - 68.0 °F 99% 30.02 in 0.2 mi Calm Calm - N/A Fog Fog
5:35 AM 68.0 °F - 67.5 °F 98% 30.03 in 0.2 mi Calm Calm - N/A Fog Fog
5:55 AM 67.6 °F - 67.3 °F 99% 30.03 in 0.2 mi Calm Calm - N/A Fog Fog
6:15 AM 68.0 °F - 67.6 °F 99% 30.03 in 0.2 mi Calm Calm - N/A Fog Fog
6:35 AM 68.2 °F - 67.8 °F 99% 30.04 in 0.2 mi Calm Calm - N/A Fog Fog
6:55 AM 68.4 °F - 68.0 °F 99% 30.04 in 0.2 mi Calm Calm - N/A Fog Fog
7:15 AM 69.8 °F - 69.3 °F 98% 30.05 in 0.5 mi Calm Calm - N/A Fog Fog
7:35 AM 72.0 °F - 71.6 °F 99% 30.05 in 1.5 mi Calm Calm - N/A   Mist
7:55 AM 73.4 °F - 72.9 °F 98% 30.06 in 4.0 mi Calm Calm - N/A   Scattered Clouds
8:15 AM 75.2 °F - 74.5 °F 98% 30.06 in 5.0 mi Calm Calm - N/A   Scattered Clouds
8:35 AM 76.8 °F - 76.3 °F 98% 30.06 in 5.0 mi Calm Calm - N/A   Clear
8:55 AM 78.8 °F - 78.1 °F 98% 30.07 in 7.0 mi Calm Calm - N/A   Clear
9:35 AM 83.5 °F 94.0 °F 78.1 °F 84% 30.07 in 10.0 mi SW 3.5 mph - N/A   Clear
9:55 AM 84.9 °F 96.6 °F 78.3 °F 80% 30.08 in 10.0 mi Calm Calm - N/A   Clear
10:15 AM 85.3 °F 97.2 °F 78.1 °F 79% 30.08 in 10.0 mi SSE 3.5 mph - N/A   Scattered Clouds
10:35 AM 86.4 °F 97.4 °F 76.6 °F 73% 30.08 in 10.0 mi SSW 5.8 mph - N/A   Scattered Clouds
10:55 AM 87.3 °F 98.2 °F 76.5 °F 70% 30.08 in 10.0 mi South 3.5 mph - N/A   Clear
11:15 AM 86.7 °F 97.3 °F 76.5 °F 71% 30.08 in 10.0 mi SW 3.5 mph - N/A   Clear
11:35 AM 88.7 °F 101.0 °F 77.0 °F 68% 30.08 in 10.0 mi Calm Calm - N/A   Clear
11:55 AM 89.8 °F 101.5 °F 76.1 °F 64% 30.08 in 10.0 mi Calm Calm - N/A   Scattered Clouds
12:15 PM 90.5 °F 104.7 °F 77.5 °F 66% 30.07 in 10.0 mi Calm Calm - N/A   Clear
12:35 PM 90.5 °F 102.1 °F 76.1 °F 62% 30.06 in 10.0 mi Calm Calm - N/A   Clear
12:55 PM 90.5 °F 100.9 °F 74.8 °F 60% 30.06 in 10.0 mi Calm Calm - N/A   Clear
1:15 PM 90.5 °F 104.0 °F 77.2 °F 65% 30.05 in 10.0 mi South 3.5 mph - N/A   Clear
1:35 PM 90.7 °F 103.2 °F 76.5 °F 63% 30.05 in 10.0 mi South 3.5 mph - N/A   Clear
1:55 PM 91.4 °F 104.5 °F 76.6 °F 62% 30.04 in 10.0 mi Calm Calm - N/A   Scattered Clouds
2:15 PM 90.9 °F 105.0 °F 77.5 °F 65% 30.04 in 10.0 mi South 3.5 mph - N/A   Clear
2:35 PM 91.2 °F 102.0 °F 75.2 °F 59% 30.03 in 10.0 mi Calm Calm - N/A   Clear
2:55 PM 90.9 °F 104.3 °F 77.4 °F 64% 30.03 in 10.0 mi SSE 4.6 mph - N/A   Clear
3:15 PM 91.4 °F 105.1 °F 77.2 °F 63% 30.03 in 10.0 mi SSE 3.5 mph - N/A   Clear
3:35 PM 91.4 °F 104.5 °F 76.8 °F 62% 30.02 in 10.0 mi SE 3.5 mph - N/A   Clear
3:55 PM 92.5 °F 106.0 °F 77.0 °F 60% 30.02 in 10.0 mi South 4.6 mph - N/A   Clear
4:15 PM 90.7 °F 104.5 °F 77.5 °F 65% 30.02 in 10.0 mi South 4.6 mph - N/A   Clear
4:35 PM 91.4 °F 105.1 °F 77.0 °F 63% 30.02 in 10.0 mi SSE 4.6 mph - N/A   Clear
4:55 PM 91.0 °F 102.9 °F 76.1 °F 61% 30.02 in 10.0 mi Calm Calm - N/A   Clear
5:15 PM 90.7 °F 104.5 °F 77.4 °F 65% 30.03 in 10.0 mi SSE 4.6 mph - N/A   Clear
5:35 PM 89.6 °F 102.2 °F 77.0 °F 66% 30.03 in 10.0 mi SSE 3.5 mph - N/A   Clear
5:55 PM 88.7 °F 102.8 °F 78.1 °F 71% 30.03 in 10.0 mi South 3.5 mph - N/A   Clear
6:15 PM 88.5 °F 102.8 °F 78.6 °F 72% 30.03 in 10.0 mi South 4.6 mph - N/A   Clear
6:35 PM 87.1 °F 101.5 °F 79.2 °F 77% 30.02 in 10.0 mi SSE 3.5 mph - N/A   Clear
6:55 PM 85.6 °F 99.7 °F 79.7 °F 82% 30.02 in 10.0 mi SSE 3.5 mph - N/A   Clear
7:15 PM 84.6 °F 96.8 °F 79.0 °F 83% 30.02 in 7.0 mi Calm Calm - N/A   Clear
7:35 PM 83.8 °F 95.1 °F 78.4 °F 84% 30.03 in 10.0 mi Calm Calm - N/A   Clear
7:55 PM 81.1 °F 88.7 °F 77.7 °F 89% 30.03 in 10.0 mi Calm Calm - N/A   Clear
8:15 PM 80.2 °F 86.3 °F 77.2 °F 90% 30.04 in 7.0 mi Calm Calm - N/A   Clear
8:35 PM 79.7 °F - 75.9 °F 88% 30.05 in 10.0 mi Calm Calm - N/A   Clear
8:55 PM 77.2 °F - 75.2 °F 94% 30.06 in 7.0 mi Calm Calm - N/A   Clear
9:15 PM 77.7 °F - 76.1 °F 95% 30.08 in 7.0 mi North 3.5 mph - N/A   Clear
9:35 PM 77.5 °F - 76.1 °F 95% 30.09 in 7.0 mi NNE 5.8 mph - N/A   Clear
10:15 PM 76.5 °F - 69.1 °F 78% 30.12 in 10.0 mi NNE 13.8 mph 19.6 mph N/A   Clear
10:35 PM 76.1 °F - 68.9 °F 78% 30.11 in 10.0 mi NNE 9.2 mph - N/A   Scattered Clouds
10:55 PM 74.7 °F - 69.1 °F 83% 30.10 in 10.0 mi ENE 5.8 mph - N/A   Clear
11:15 PM 73.9 °F - 69.3 °F 85% 30.06 in 10.0 mi ESE 5.8 mph - N/A   Clear
11:35 PM 75.2 °F - 70.7 °F 86% 30.04 in 10.0 mi SE 6.9 mph - N/A   Clear
11:55 PM 75.0 °F - 71.1 °F 87% 30.05 in 10.0 mi Calm Calm - N/A   Clear